sat.trackr.live / text

‹ back to catalog

STARLINK-1036

NORAD 44741 · 2019-074AE

PAYLOAD ACTIVE UNKNOWN

§ Identity

Operator
Country
US
Launch date
2019-11-11
Launch site
AFETR
Launch vehicle
Mass (kg)
RCS (m²)

Purposes: comms

External: N2YO · Heavens-Above · Gunter

§ Orbital elements

Epoch: 2026-05-24T12:23:15.115488Z

Period
91.87 min
Inclination
53.0420°
Eccentricity
0.0002930
Mean motion
15.67482891 rev/d
Perigee alt
364.1 km
Apogee alt
368.1 km
Semi-major
6,744.2 km
B*
3.6845e-4
RAAN
177.5404°
Arg perigee
327.9971°
Mean anomaly
32.0866°
Rev number
36,058

§ Raw data

STARLINK-10361 44741U 19074AE  26144.51614717  .00040372  00000+0  36845-3 0  99942 44741  53.0420 177.5404 0002930 327.9971  32.0866 15.67482891360584

JSON: /api/v1/satellites/44741 · /tle

For live sub-satellite position, see the globe view (requires WebGL).

§ Visibility from observer

Set your observer location to see the next 7 days of passes ≥ 10°. The values pass through the URL so the page stays shareable.

No JS? Fill the form by hand. The geolocation button needs JavaScript.